This demonstration page uses our WeatherBlox Daily Observations layout. Learn more.

Left ArrowRight Arrow

39.12711, -84.51439

Hourly Observations for October 23, 2020

Temp ( °F °C ) Dew Point ( °F °C ) Humidity (%) Winds ( mph kmh ) Pressure ( in mb ) Visibility ( mi km ) Precip ( " mm )
12:00 am 00:00 Mostly Cloudy with Fog 58 14.4 58 14.4 100 100 Calm 30.07 1018 0 0 0.00 0.00
12:44 am 00:44 Mostly Cloudy with Fog 57 13.9 57 13.9 100 100 Calm 30.06 1018 1 1 0.00 0.00
12:51 am 00:51 Mostly Cloudy with Fog 57 14 57 14 100 100 Calm 30.06 1018 0 0 0.00 0.00
12:53 am 00:53 Mostly Cloudy with Fog 58 14.4 57 13.9 97 97 Calm 30.05 1018 0 0 0.00 0.00
1:53 am 01:53 Mostly Cloudy with Fog 56 13.3 56 13.3 100 100 Calm 30.04 1017 0 0 0.00 0.00
2:36 am 02:36 Mostly Cloudy with Fog 55 12.8 55 12.8 100 100 Calm 30.05 1018 1 1 0.00 0.00
2:48 am 02:48 Mostly Cloudy with Fog 55 13 54 12 94 94 Calm 30.05 1018 0 0 0.00 0.00
2:53 am 02:53 Mostly Cloudy with Fog 55 12.8 54 12.2 96 96 Calm 30.04 1017 0 0 0.00 0.00
3:53 am 03:53 Mostly Clear with Mist and Fog 56 13.3 55 12.8 97 97 Calm 30.04 1017 2 2 0.00 0.00
3:55 am 03:55 Mostly Clear with Mist and Fog 56 13.3 55 12.8 97 97 Calm 30.04 1017 4 6 0.00 0.00
4:24 am 04:24 Clear with Mist and Fog 54 12.2 53 11.7 97 97 Calm 30.05 1018 2 3 0.00 0.00
4:34 am 04:34 Clear with Mist and Fog 54 12.2 53 11.7 97 97 Calm 30.05 1018 3 5 0.00 0.00
4:41 am 04:41 Clear with Mist and Fog 55 12.8 54 12.2 96 96 Calm 30.05 1018 2 3 0.00 0.00
4:53 am 04:53 Mostly Cloudy with Fog 54 12.2 54 12.2 100 100 Calm 30.04 1017 1 1 0.00 0.00
5:20 am 05:20 Cloudy with Mist and Fog 53 11.7 53 11.7 100 100 Calm 30.05 1018 2 3 0.00 0.00
5:34 am 05:34 Mostly Cloudy with Mist and Fog 54 12.2 54 12.2 100 100 Calm 30.06 1018 1 1 0.00 0.00
5:53 am 05:53 Mostly Cloudy with Fog 54 12.2 54 12.2 100 100 Calm 30.05 1018 0 0 0.00 0.00
6:03 am 06:03 Mostly Cloudy with Fog 53 11.7 53 11.7 100 100 Calm 30.06 1018 1 1 0.00 0.00
6:12 am 06:12 Mostly Cloudy with Fog 53 11.7 53 11.7 100 100 Calm 30.07 1018 0 0 0.00 0.00
6:25 am 06:25 Mostly Cloudy with Fog 53 11.7 53 11.7 100 100 Calm 30.07 1018 1 1 0.00 0.00
6:37 am 06:37 Clear with Fog 53 11.7 52 11.1 96 96 Calm 30.07 1018 1 1 0.00 0.00
6:53 am 06:53 Clear with Patchy Fog 52 11.1 52 11.1 100 100 Calm 30.07 1018 10 16 0.00 0.00
7:53 am 07:53 Mostly Cloudy with Patchy Fog 53 11.7 53 11.7 100 100 Calm 30.07 1018 10 16 0.00 0.00
8:53 am 08:53 Mostly Cloudy 57 13.9 57 13.9 100 100 Calm 30.07 1018 10 16 0.00 0.00
9:53 am 09:53 Mostly Cloudy 64 17.8 60 15.6 87 87 Calm 30.07 1018 10 16 0.00 0.00
10:53 am 10:53 Mostly Cloudy 71 21.7 64 17.8 79 79 S 9 15 30.05 1018 10 16 0.00 0.00
11:53 am 11:53 Mostly Cloudy 76 24.4 64 17.8 67 67 SSW 18 30 30.03 1017 10 16 0.00 0.00
12:53 pm 12:53 Mostly Cloudy with Light Rain 77 25 65 18.3 66 66 WSW 13 20 30.02 1017 10 16 0.00 0.00
1:07 pm 13:07 Cloudy with Thunderstorms 76 24.4 64 17.8 67 67 SW 13 20 30.00 1016 10 16 0.00 0.00
1:53 pm 13:53 Cloudy with Thunderstorms 70 21.1 66 18.9 87 87 SW 10 17 30.00 1016 10 16 0.02 0.51
1:57 pm 13:57 Mostly Cloudy with Light Rain 72 22.2 67 19.4 84 84 SSW 10 17 29.99 1016 10 16 0.00 0.00
2:53 pm 14:53 Partly Cloudy 77 25 67 19.4 71 71 SSW 14 22 29.97 1015 10 16 0.00 0.00
3:53 pm 15:53 Partly Cloudy 78 25.6 66 18.9 67 67 SSW 13 20 29.93 1014 10 16 0.00 0.00
4:53 pm 16:53 Partly Cloudy 78 25.6 65 18.3 64 64 S 15 24 29.92 1013 10 16 0.00 0.00
5:53 pm 17:53 Partly Cloudy 73 22.8 61 16.1 66 66 SSE 9 15 29.92 1013 10 16 0.00 0.00
6:53 pm 18:53 Partly Cloudy 69 20.6 62 16.7 78 78 SSW 7 11 29.93 1014 10 16 0.00 0.00
7:53 pm 19:53 Mostly Cloudy with Thunderstorms 68 20 63 17.2 84 84 SW 9 15 29.94 1014 10 16 0.00 0.00
8:53 pm 20:53 Mostly Cloudy with Light Rain 66 18.9 62 16.7 87 87 W 12 19 29.97 1015 10 16 0.06 1.52
9:53 pm 21:53 Partly Cloudy 65 18.3 62 16.7 90 90 W 10 17 29.98 1015 10 16 0.00 0.00
10:53 pm 22:53 Mostly Cloudy 59 15 54 12.2 83 83 NW 17 28 30.03 1017 10 16 0.00 0.00
11:13 pm 23:13 Cloudy 57 13.9 53 11.7 87 87 WNW 12 19 30.06 1018 10 16 0.00 0.00
11:53 pm 23:53 Cloudy 54 12.2 50 10 87 87 NW 12 19 30.07 1018 10 16 0.00 0.00

Powered by AerisWeather